Regional Weather Roundup
Issued by NWS

Home | Current Version | Previous Version | Graphics & Text | Print | Product List | Glossary Off
Versions: 1 2 3 4 5 6 7 8 9 10 11 12 13 14 15 16 17 18 19 20 21 22 23 24 25 26 27 28 29 30 31 32 33 34 35 36 37 38 39 40 41 42 43 44 45 46 47 48 49 50

000
ASUS43 KMKX 271400
RWRWI

WISCONSIN REGIONAL WEATHER ROUNDUP
NATIONAL WEATHER SERVICE MILWAUKEE/SULLIVAN WI
900 AM CDT TUE JUN 27 2017

NOTE: "FAIR" INDICATES FEW OR NO CLOUDS BELOW 12,000 FEET WITH NO
SIGNIFICANT WEATHER AND/OR OBSTRUCTIONS TO VISIBILITY.

WIZ001-002-006>008-014>016-023>028-271500-
NORTHWEST WISCONSIN

CITY           SKY/WX    TMP DP  RH WIND       PRES   REMARKS
SUPERIOR ARPT  NOT AVBL
ASHLAND        SUNNY     62  51  67 SW8       30.05S
HAYWARD        SUNNY     61  47  59 W5        30.08S
SIREN          CLOUDY    60  46  59 CALM      30.09R
CUMBERLAND     SUNNY     59  46  63 W6        30.10S
RICE LAKE      SUNNY     60  49  65 W3        30.11S
CHETEK         SUNNY     59  53  80 CALM      30.10S
LADYSMITH      SUNNY     62  49  63 W5        30.11S
EAU CLAIRE     NOT AVBL
MENOMONIE      SUNNY     64  51  62 SW3       30.10S
NEW RICHMOND   SUNNY     62  49  63 SW5       30.11R
OSCEOLA        MOSUNNY   61  51  70 CALM      30.13S
$$

WIZ003>005-009-010-017-018-271500-
NORTH CENTRAL WISCONSIN

CITY           SKY/WX    TMP DP  RH WIND       PRES   REMARKS
MANITOWISH WTR SUNNY     60  53  76 NW3       30.05F
ARBOR VITAE    SUNNY     59  50  72 W5        30.06R
WOODRUFF       SUNNY     59  50  72 W5        30.06R
RHINELANDER    SUNNY     60  52  74 W8        30.07S
EAGLE RIVER    SUNNY     59  49  68 CALM      30.05S
LAND O LAKES   SUNNY     61  49  65 W3        30.07S
PHILLIPS       MOSUNNY   60  52  75 CALM      30.07S
TOMAHAWK       NOT AVBL
MEDFORD        SUNNY     58  48  69 W6        30.09S
MERRILL        SUNNY     61  50  67 W7        30.08S
$$

WIZ029-030-035-036-043>047-271500-
CENTRAL WISCONSIN

CITY           SKY/WX    TMP DP  RH WIND       PRES   REMARKS
WAUSAU         SUNNY     63  49  60 W12       30.07S
MOSINEE        MOSUNNY   63  48  59 W9        30.10S
MARSHFIELD     SUNNY     61  48  62 W10       30.09S
STEVENS POINT  SUNNY     59  47  64 W8        30.10S
WAUPACA        SUNNY     65  49  56 W9        30.09S
WAUTOMA        SUNNY     64  49  57 NW12      30.11S
WISC RAPIDS    SUNNY     63  49  60 W10       30.11S
CAMP DOUGLAS   NOT AVBL
$$

WIZ011>013-019>022-031-037>040-048>050-271500-
NORTHEAST WISCONSIN

CITY           SKY/WX    TMP DP  RH WIND       PRES   REMARKS
ANTIGO         SUNNY     58  50  74 NW6       30.08S
SHAWANO        PTSUNNY   60  51  70 W9        30.07S
OCONTO         PTSUNNY   60  51  74 W9        30.06R
STURGEON BAY     N/A     60  50  69 NW7         N/A
GREEN BAY      MOSUNNY   63  54  72 W7        30.08R
MANITOWOC      NOT AVBL
APPLETON       MOSUNNY   61  48  63 W9        30.07S
CLINTONVILLE   SUNNY     61  48  63 NW7       30.07F
OSHKOSH        SUNNY     63  50  62 W6        30.09R
$$

WIZ032>034-041-042-053>061-271500-
SOUTHWEST WISCONSIN

CITY           SKY/WX    TMP DP  RH WIND       PRES   REMARKS
LA CROSSE      SUNNY     66  49  54 S7        30.12S
SPARTA         SUNNY     59  49  71 W5        30.12F
VIROQUA        SUNNY     62  50  65 W8        30.14S
BOSCOBEL       SUNNY     64  51  62 SW6       30.15R
PRAIRIE DU CHI SUNNY     60  51  73 CALM      30.14S
PLATTEVILLE    SUNNY     62  51  66 W7        30.16R
$$

WIZ056-057-062-063-064-067-068-271500-
SOUTH CENTRAL WISCONSIN

CITY           SKY/WX    TMP DP  RH WIND       PRES   REMARKS
REEDSBURG      SUNNY     62  49  63 CALM      30.12S
BARABOO/DELLS  SUNNY     61  47  60 W6        30.13R
LONE ROCK      NOT AVBL
MINERAL POINT  SUNNY     63  50  63 W7        30.14S
MADISON        MOSUNNY   64  50  60 VRB7      30.13R
MIDDLETON      SUNNY     62  50  64 W9        30.14R
WATERTOWN      NOT AVBL
MONROE         SUNNY     63  43  48 W10       30.14S
JANESVILLE     SUNNY     64  48  55 W6        30.13S
$$

WIZ051-052-058>065-066-070>072-271500-
SOUTHEAST WISCONSIN

CITY           SKY/WX    TMP DP  RH WIND       PRES   REMARKS
MILWAUKEE      MOSUNNY   65  49  56 W9        30.12R
WAUKESHA       SUNNY     61  48  63 W9        30.12S
MILWAUKEE/TIMM SUNNY     63  46  55 W8        30.12R
RACINE         SUNNY     64  48  56 NW6       30.13S
KENOSHA        SUNNY     64  51  62 W8        30.13R
FOND DU LAC    SUNNY     65  47  52 W12       30.10R
SHEBOYGAN      SUNNY     63  53  70 NW9       30.09R
WEST BEND      SUNNY     61  50  67 W10       30.10S
JUNEAU         SUNNY     60  49  65 W6        30.12S
$$

LSZ147-162-271500-
LAKE SUPERIOR

STATION/POSITION TIME  TEMP    WIND        PRES    WAVE
                       AIR SEA DIR/SP/G            HT/PER
                 (UTC) (F)     (DEG/KT/KT) (MB)    (FT/S)
W MID LAKE BUOY  1250   45 39  250/ 10/ 12 1016.5R   1
DEVILS ISLAND    1300   55     230/ 13/ 14 1016.9R
SAXON HARBOR     1330   62     200/  4/  6 1016.9S
$$

LMZ867-665-643>646-271500-
LAKE MICHIGAN

STATION/POSITION TIME  TEMP    WIND        PRES    WAVE
                       AIR SEA DIR/SP/G            HT/PER
                 (UTC) (F)     (DEG/KT/KT) (MB)    (FT/S)
CHAMBERS ISLAND  1340   60      10/  3/  6 1016.9S
S GREEN BAY BUOY 1330   58     260/  6/ 10 1017.7R
N MID LAKE BUOY  1250   56 54  280/ 12/ 14 1017.0R   1/ 3
NORTHPORT PIER   1340   58     310/  7/ 10 1016.9S
KEWAUNEE LAKESHO 1330   60     290/  7/ 10 1017.5R
SHEBOYGAN LAKESH 1300   59     290/ 10/ 15 1018.3R
PORT WASHINGTON  1340   66     300/  6/ 11 1020.0R
ATWATER BUOY     1209   58 56  270/ 10/ 14 1018.9R
MILWAUKEE LAKESH 1330   62     300/  9/ 12   N/A
S MID LAKE BUOY  1250   60 61  300/ 12/ 14 1019.3R   1/ 3
KENOSHA   LAKESH 1300   61     290/  8/ 12 1019.6
$$

TC  - TEMPERATURE IN CELSIUS
VSB - VISIBILITY IN STATUTE MILES
WCI - WIND CHILL INDEX
HX  - HEAT INDEX





USA.gov is the U.S. government's official web portal to all federal, state and local government web resources and services.